QPF
0.00 0.06 0.10 0.02 0.00 0.00 0.00 0.00 0.00 0.00 0.00 0.00 0.00 0.00 0.00 0.00 0.00 0.00 0.00 0.00 0.01 0.06 0.03 0.01 0.00 0.01 0.02 0.01 0.01 0.00 0.01 0.00 0.00 0.00 0.00 0.00 0.01 0.08 0.01 0.00 0.00 0.00 0.02
0.00 0.07 0.14 0.03 0.00 0.00 0.00 0.00 0.00 0.00 0.00 0.00 0.00 0.00 0.00 0.00 0.00 0.00 0.00 0.00 0.02 0.08 0.01 0.01 0.01 0.00 0.00 0.00 0.00 0.00 0.00 0.00 0.00 0.00 0.02 0.03 0.00 0.01 0.00 0.00 0.00 0.01 0.01
0.00 0.01 0.07 0.10 0.02 0.02 0.00 0.00 0.00 0.00 0.00 0.00 0.00 0.00 0.00 0.00 0.00 0.00 0.00 0.00 0.01 0.04 0.00 0.00 0.00 0.00 0.00 0.00 0.00 0.00 0.00 0.00 0.00 0.00 0.00 0.01 0.00 0.00 0.01 0.01 0.00 0.02 0.06
0.00 0.00 0.00 0.02 0.06 0.02 0.00 0.00 0.00 0.00 0.00 0.00 0.00 0.00 0.00 0.00 0.00 0.00 0.00 0.01 0.01 0.00 0.00 0.01 0.01 0.00 0.00 0.00 0.00 0.00 0.00 0.00 0.00 0.00 0.00 0.00 0.02 0.05 0.08 0.01 0.00 0.03 0.06
0.00 0.00 0.00 0.01 0.06 0.04 0.00 0.00 0.00 0.05 0.02 0.00 0.00 0.00 0.00 0.00 0.00 0.00 0.11 0.09 0.00 0.00 0.01 0.01 0.01 0.00 0.00 0.00 0.02 0.02 0.01 0.00 0.02 0.03 0.03 0.01 0.00 0.00 0.02 0.00 0.05 0.10 0.15
0.00 0.05 0.08 0.06 0.10 0.02 0.04 0.07 0.03 0.05 0.00 0.00 0.00 0.00 0.00 0.00 0.00 0.01 0.10 0.01 0.01 0.00 0.00 0.00 0.00 0.00 0.00 0.00 0.01 0.00 0.01 0.00 0.00 0.04 0.06 0.04 0.00 0.00 0.02 0.06 0.18 0.18 0.10
0.00 0.02 0.08 0.25 0.11 0.05 0.08 0.12 0.06 0.00 0.00 0.01 0.03 0.05 0.03 0.02 0.02 0.01 0.01 0.00 0.00 0.00 0.00 0.00 0.00 0.00 0.00 0.00 0.00 0.00 0.00 0.00 0.01 0.05 0.11 0.01 0.00 0.00 0.08 0.18 0.19 0.16 0.03
0.01 0.03 0.01 0.13 0.35 0.24 0.12 0.12 0.01 0.00 0.00 0.00 0.02 0.04 0.06 0.08 0.02 0.02 0.01 0.00 0.00 0.00 0.01 0.05 0.01 0.00 0.00 0.00 0.00 0.00 0.00 0.00 0.00 0.01 0.00 0.00 0.00 0.03 0.10 0.09 0.14 0.02 0.00
0.00 0.01 0.03 0.08 0.19 0.30 0.17 0.14 0.03 0.02 0.01 0.02 0.05 0.06 0.07 0.08 0.02 0.02 0.04 0.01 0.00 0.00 0.00 0.01 0.00 0.00 0.00 0.00 0.00 0.00 0.00 0.00 0.00 0.02 0.03 0.02 0.00 0.02 0.01 0.07 0.16 0.11 0.05
0.00 0.01 0.05 0.14 0.21 0.28 0.24 0.20 0.16 0.16 0.07 0.00 0.01 0.02 0.03 0.07 0.08 0.05 0.01 0.00 0.00 0.00 0.00 0.00 0.00 0.00 0.00 0.00 0.00 0.00 0.00 0.00 0.00 0.00 0.00 0.00 0.00 0.06 0.05 0.03 0.17 0.15 0.20
0.00 0.00 0.02 0.06 0.13 0.21 0.20 0.14 0.09 0.10 0.12 0.04 0.07 0.06 0.06 0.03 0.05 0.02 0.00 0.00 0.00 0.00 0.00 0.00 0.00 0.00 0.00 0.00 0.00 0.00 0.00 0.00 0.00 0.00 0.04 0.01 0.00 0.00 0.09 0.03 0.08 0.05 0.05
0.00 0.00 0.00 0.01 0.02 0.04 0.08 0.11 0.09 0.09 0.17 0.13 0.04 0.02 0.00 0.00 0.00 0.00 0.00 0.00 0.00 0.00 0.00 0.00 0.00 0.00 0.00 0.00 0.02 0.00 0.00 0.00 0.01 0.00 0.01 0.00 0.00 0.00 0.05 0.07 0.09 0.02 0.00
0.00 0.00 0.00 0.00 0.00 0.01 0.03 0.02 0.03 0.04 0.02 0.00 0.00 0.00 0.00 0.00 0.00 0.00 0.00 0.00 0.00 0.00 0.00 0.00 0.00 0.02 0.04 0.03 0.00 0.00 0.00 0.00 0.02 0.02 0.00 0.00 0.00 0.00 0.02 0.08 0.07 0.01 0.00
0.00 0.00 0.00 0.00 0.00 0.00 0.00 0.00 0.00 0.00 0.00 0.00 0.00 0.00 0.00 0.00 0.00 0.00 0.00 0.00 0.00 0.00 0.00 0.00 0.00 0.00 0.00 0.00 0.00 0.00 0.00 0.00 0.00 0.00 0.00 0.00 0.00 0.00 0.00 0.01 0.00 0.02 0.00
0.00 0.00 0.00 0.00 0.00 0.00 0.00 0.00 0.00 0.00 0.00 0.00 0.00 0.00 0.00 0.00 0.00 0.00 0.00 0.00 0.00 0.00 0.00 0.00 0.00 0.00 0.00 0.00 0.00 0.00 0.00 0.00 0.00 0.00 0.00 0.01 0.00 0.00 0.00 0.00 0.01 0.01 0.00
0.00 0.00 0.00 0.00 0.00 0.00 0.00 0.00 0.00 0.02 0.01 0.00 0.00 0.00 0.00 0.00 0.00 0.00 0.00 0.00 0.00 0.00 0.00 0.00 0.00 0.00 0.00 0.01 0.00 0.00 0.00 0.00 0.00 0.00 0.00 0.01 0.00 0.00 0.00 0.00 0.02 0.00 0.00
0.00 0.00 0.00 0.00 0.00 0.00 0.00 0.00 0.00 0.00 0.00 0.00 0.00 0.00 0.00 0.00 0.00 0.00 0.00 0.00 0.00 0.00 0.00 0.00 0.00 0.00 0.01 0.00 0.00 0.00 0.00 0.00 0.00 0.00 0.00 0.00 0.00 0.00 0.00 0.00 0.00 0.00 0.02
0.00 0.00 0.00 0.00 0.00 0.00 0.00 0.00 0.00 0.00 0.00 0.00 0.00 0.00 0.00 0.00 0.00 0.00 0.00 0.00 0.00 0.00 0.00 0.00 0.00 0.02 0.06 0.02 0.00 0.00 0.00 0.00 0.00 0.00 0.00 0.00 0.00 0.00 0.00 0.00 0.00 0.01 0.03
0.00 0.00 0.00 0.00 0.00 0.00 0.01 0.00 0.00 0.00 0.00 0.00 0.00 0.00 0.00 0.00 0.00 0.00 0.00 0.00 0.00 0.00 0.00 0.00 0.00 0.00 0.01 0.01 0.00 0.00 0.00 0.00 0.00 0.01 0.00 0.00 0.00 0.00 0.00 0.00 0.00 0.01 0.04
0.00 0.00 0.00 0.00 0.00 0.00 0.00 0.00 0.00 0.00 0.00 0.00 0.00 0.00 0.00 0.00 0.00 0.00 0.00 0.00 0.00 0.00 0.00 0.00 0.00 0.00 0.01 0.01 0.00 0.00 0.00 0.00 0.00 0.00 0.00 0.00 0.00 0.00 0.00 0.00 0.00 0.00 0.00
0.00 0.00 0.00 0.00 0.00 0.00 0.00 0.00 0.00 0.00 0.02 0.01 0.00 0.00 0.00 0.00 0.00 0.00 0.00 0.01 0.00 0.00 0.00 0.00 0.00 0.00 0.00 0.00 0.00 0.00 0.00 0.00 0.01 0.00 0.00 0.00 0.00 0.00 0.00 0.00 0.00 0.00 0.00
0.00 0.00 0.00 0.00 0.00 0.00 0.00 0.00 0.00 0.00 0.02 0.01 0.00 0.00 0.00 0.00 0.00 0.02 0.01 0.00 0.00 0.00 0.00 0.00 0.00 0.00 0.00 0.00 0.00 0.00 0.00 0.02 0.00 0.00 0.00 0.00 0.00 0.00 0.00 0.00 0.00 0.00 0.00
0.00 0.00 0.00 0.00 0.00 0.00 0.00 0.00 0.00 0.00 0.00 0.00 0.00 0.00 0.00 0.00 0.00 0.00 0.00 0.00 0.00 0.00 0.00 0.00 0.00 0.00 0.00 0.00 0.00 0.00 0.00 0.01 0.01 0.01 0.00 0.00 0.00 0.00 0.00 0.00 0.00 0.00 0.00
0.00 0.00 0.00 0.00 0.00 0.00 0.00 0.00 0.00 0.00 0.00 0.00 0.00 0.00 0.00 0.00 0.00 0.00 0.00 0.00 0.00 0.00 0.00 0.00 0.00 0.00 0.00 0.00 0.00 0.00 0.00 0.02 0.03 0.05 0.01 0.00 0.00 0.00 0.00 0.00 0.00 0.00 0.00
0.00 0.01 0.00 0.00 0.00 0.00 0.00 0.00 0.00 0.00 0.00 0.00 0.00 0.00 0.00 0.00 0.00 0.00 0.00 0.00 0.00 0.00 0.00 0.00 0.00 0.00 0.00 0.00 0.00 0.00 0.01 0.02 0.02 0.01 0.00 0.00 0.00 0.00 0.00 0.00 0.00 0.00 0.00
0.00 0.02 0.02 0.00 0.00 0.00 0.00 0.00 0.00 0.00 0.00 0.00 0.00 0.00 0.00 0.00 0.00 0.00 0.00 0.00 0.00 0.00 0.00 0.00 0.00 0.00 0.00 0.00 0.00 0.00 0.00 0.01 0.00 0.00 0.00 0.00 0.00 0.00 0.00 0.00 0.00 0.00 0.00
MSLP
1014.51 1014.33 1014.28 1014.45 1014.61 1014.68 1014.83 1014.95 1015.07 1015.22 1015.38 1015.43 1015.48 1015.61 1015.76 1015.99 1016.16 1016.45 1016.57 1016.62 1016.80 1016.75 1016.90 1016.88 1017.05 1017.26 1017.39 1017.48 1017.70 1017.83 1017.92 1018.08 1018.10 1018.27 1018.40 1018.46 1018.38 1018.38 1018.63 1018.69 1018.84 1018.80 1018.87
1014.11 1014.47 1014.46 1014.59 1014.70 1014.82 1014.95 1015.08 1015.25 1015.43 1015.52 1015.64 1015.66 1015.85 1015.93 1016.16 1016.37 1016.68 1016.74 1016.88 1016.98 1017.02 1017.11 1017.31 1017.38 1017.49 1017.66 1017.86 1017.99 1018.06 1018.14 1018.29 1018.33 1018.49 1018.60 1018.76 1018.55 1018.54 1018.66 1018.73 1018.94 1019.08 1019.20
1014.30 1014.34 1014.57 1014.69 1014.79 1015.01 1015.22 1015.35 1015.46 1015.59 1015.66 1015.76 1015.92 1016.00 1016.14 1016.40 1016.64 1016.71 1016.94 1017.00 1017.18 1017.22 1017.39 1017.64 1017.71 1017.72 1017.90 1018.06 1018.11 1018.09 1018.23 1018.33 1018.65 1018.62 1018.70 1018.72 1018.60 1018.56 1018.60 1018.83 1019.05 1019.21 1019.36
1014.23 1014.52 1014.64 1014.77 1014.89 1015.17 1015.39 1015.46 1015.59 1015.76 1015.80 1015.91 1016.08 1016.20 1016.42 1016.70 1016.78 1016.83 1016.97 1017.14 1017.35 1017.52 1017.71 1017.91 1017.96 1018.05 1018.23 1018.29 1018.17 1018.19 1018.26 1018.21 1018.76 1018.81 1018.94 1018.81 1018.66 1018.82 1018.59 1018.82 1019.02 1019.24 1019.40
1014.47 1014.60 1014.86 1014.98 1015.08 1015.16 1015.47 1015.67 1015.73 1015.81 1015.92 1016.09 1016.22 1016.30 1016.62 1016.79 1016.94 1016.86 1017.08 1017.35 1017.46 1017.68 1018.00 1018.14 1018.24 1018.35 1018.37 1018.42 1018.46 1018.49 1018.51 1018.37 1018.60 1018.96 1019.17 1019.01 1019.03 1018.48 1019.01 1019.18 1019.18 1019.29 1019.22
1014.77 1014.80 1014.97 1015.04 1015.20 1015.24 1015.51 1015.69 1015.84 1016.03 1016.14 1016.14 1016.32 1016.49 1016.74 1016.76 1017.01 1017.00 1017.26 1017.67 1017.86 1017.88 1018.20 1018.39 1018.54 1018.56 1018.57 1018.54 1018.66 1018.61 1018.65 1018.52 1018.41 1018.78 1019.17 1019.12 1018.96 1018.84 1018.91 1019.46 1019.07 1019.40 1019.51
1015.09 1015.13 1015.21 1015.39 1015.37 1015.63 1015.77 1015.89 1015.92 1016.10 1016.22 1016.36 1016.35 1016.81 1016.82 1017.02 1017.22 1017.18 1017.43 1017.72 1018.00 1018.28 1018.53 1018.52 1018.60 1018.63 1018.72 1018.67 1018.67 1018.52 1018.45 1018.30 1018.24 1018.60 1018.96 1018.95 1019.02 1019.05 1019.28 1019.19 1019.46 1019.65 1019.74
1015.40 1015.27 1015.60 1015.96 1015.77 1015.87 1015.96 1016.06 1016.08 1016.29 1016.49 1016.65 1016.81 1016.95 1016.98 1017.23 1017.29 1017.35 1017.67 1017.88 1018.28 1018.46 1018.68 1018.69 1018.73 1018.69 1018.68 1018.76 1018.58 1018.60 1018.53 1018.51 1018.33 1018.49 1018.68 1018.64 1018.71 1018.91 1018.94 1019.21 1019.44 1019.67 1019.81
1015.47 1015.75 1015.94 1016.45 1016.55 1016.33 1016.10 1016.22 1016.41 1016.50 1016.78 1016.92 1017.06 1017.23 1017.40 1017.39 1017.56 1017.78 1018.15 1018.33 1018.40 1018.64 1018.73 1018.72 1018.73 1018.61 1018.58 1018.64 1018.53 1018.66 1018.70 1018.63 1018.68 1018.73 1018.88 1018.89 1018.68 1018.62 1018.66 1018.94 1019.26 1019.46 1019.54
1015.84 1016.06 1016.34 1016.40 1016.23 1016.30 1016.47 1016.55 1016.84 1016.89 1017.01 1017.14 1017.30 1017.47 1017.58 1017.68 1017.75 1017.91 1018.21 1018.30 1018.56 1018.66 1018.68 1018.70 1018.77 1018.63 1018.60 1018.57 1018.58 1018.74 1018.53 1018.45 1018.62 1018.53 1018.73 1018.92 1018.90 1018.79 1018.69 1018.58 1018.79 1019.22 1019.20
1016.22 1016.46 1016.57 1016.74 1016.78 1016.70 1016.86 1016.83 1017.05 1017.65 1017.24 1017.45 1017.65 1017.69 1018.02 1018.10 1018.14 1018.36 1018.50 1018.51 1018.64 1018.71 1018.80 1018.83 1018.77 1018.43 1018.44 1018.39 1018.50 1018.61 1018.43 1018.75 1018.65 1018.71 1018.73 1018.75 1018.52 1018.49 1018.60 1018.56 1018.65 1018.90 1019.18
1016.48 1016.66 1016.78 1016.87 1016.89 1016.89 1016.96 1017.12 1017.24 1017.51 1017.96 1018.05 1018.08 1018.08 1018.29 1018.34 1018.32 1018.54 1018.63 1018.61 1018.71 1018.71 1018.76 1018.78 1018.59 1018.27 1018.31 1018.24 1018.42 1018.35 1018.45 1018.40 1018.45 1018.74 1018.72 1018.65 1018.57 1018.47 1018.55 1018.54 1018.63 1018.90 1019.04
1016.61 1016.75 1016.85 1016.88 1016.99 1017.03 1017.13 1017.21 1017.61 1018.01 1018.02 1018.13 1018.28 1018.35 1018.48 1018.53 1018.63 1018.67 1018.79 1018.87 1018.93 1018.87 1018.94 1018.83 1018.62 1018.41 1018.25 1018.02 1018.00 1018.10 1018.19 1018.31 1018.69 1018.71 1018.41 1018.56 1018.49 1018.33 1018.42 1018.52 1018.59 1018.84 1019.04
1016.61 1016.76 1016.91 1016.86 1017.07 1017.20 1017.10 1017.30 1017.85 1018.14 1018.22 1018.34 1018.42 1018.54 1018.69 1018.77 1018.79 1018.85 1019.00 1019.07 1018.93 1018.85 1018.85 1018.84 1018.83 1018.68 1018.35 1018.16 1017.86 1017.81 1017.83 1018.12 1018.39 1018.30 1018.33 1018.38 1018.28 1018.03 1018.21 1018.34 1018.40 1018.68 1019.00
1016.62 1016.67 1016.81 1016.81 1017.06 1017.16 1017.22 1017.69 1017.97 1018.19 1018.25 1018.28 1018.45 1018.46 1018.62 1018.77 1018.82 1018.95 1019.08 1019.12 1019.07 1018.86 1018.85 1018.79 1018.81 1018.61 1018.51 1018.33 1017.99 1018.21 1018.04 1018.17 1018.20 1018.23 1018.14 1018.16 1018.04 1017.98 1018.15 1018.27 1018.28 1018.53 1018.84
1016.56 1016.58 1016.63 1016.83 1016.91 1017.10 1017.41 1017.66 1017.83 1018.10 1018.16 1018.43 1018.46 1018.38 1018.55 1018.76 1018.89 1018.91 1019.00 1018.99 1019.03 1018.96 1018.94 1018.96 1018.77 1018.66 1018.88 1018.83 1018.52 1018.50 1018.13 1017.95 1018.05 1018.26 1018.10 1018.07 1017.94 1017.90 1018.09 1018.13 1018.20 1018.48 1018.77
1016.42 1016.62 1016.67 1016.82 1016.69 1017.09 1017.14 1017.46 1017.68 1017.77 1017.97 1018.24 1018.29 1018.25 1018.43 1018.60 1018.92 1019.00 1019.09 1018.98 1018.95 1018.99 1018.83 1018.69 1018.45 1018.69 1018.98 1018.84 1018.81 1018.50 1018.14 1018.09 1018.19 1018.14 1018.21 1018.15 1018.06 1017.88 1017.95 1018.10 1018.22 1018.37 1018.67
1016.14 1016.39 1016.69 1016.86 1017.05 1017.03 1016.99 1017.51 1017.75 1017.92 1018.14 1018.12 1018.16 1018.22 1018.38 1018.41 1018.71 1019.06 1019.11 1018.93 1018.89 1018.88 1018.67 1018.62 1018.67 1019.13 1018.99 1019.16 1018.90 1018.72 1018.24 1018.16 1018.34 1018.32 1018.23 1018.37 1018.25 1017.90 1018.02 1018.16 1018.37 1018.43 1018.65
1016.02 1016.25 1016.60 1016.92 1017.14 1017.33 1017.29 1017.55 1017.75 1017.63 1018.02 1018.00 1018.02 1018.17 1018.29 1018.39 1018.57 1018.96 1018.96 1018.92 1018.80 1018.73 1018.55 1018.63 1018.76 1018.97 1018.97 1018.93 1018.83 1018.80 1018.53 1018.43 1018.31 1018.19 1018.14 1018.22 1018.33 1018.17 1018.13 1018.29 1018.42 1018.55 1018.73
1015.85 1016.27 1016.51 1016.66 1017.10 1017.47 1017.70 1017.90 1018.00 1018.01 1017.99 1017.98 1018.01 1018.02 1018.18 1018.37 1018.61 1018.98 1018.84 1018.81 1018.77 1018.76 1018.76 1018.70 1018.73 1018.85 1018.80 1018.78 1018.81 1018.63 1018.47 1018.42 1018.25 1018.29 1018.34 1018.26 1018.32 1018.35 1018.28 1018.62 1018.62 1018.68 1018.81
1015.62 1016.14 1016.36 1016.80 1016.92 1017.46 1017.80 1018.06 1018.18 1018.06 1017.93 1017.79 1017.83 1017.72 1017.93 1018.26 1018.58 1018.89 1018.85 1018.70 1018.71 1018.82 1018.81 1018.88 1018.94 1019.01 1018.78 1018.86 1018.72 1018.60 1018.44 1018.33 1018.31 1018.51 1018.44 1018.33 1018.36 1018.57 1018.56 1018.54 1018.87 1018.99 1018.98
1015.03 1015.50 1016.04 1016.43 1016.72 1017.09 1017.38 1017.54 1017.62 1017.62 1017.53 1017.39 1017.45 1017.60 1017.86 1018.17 1018.49 1018.86 1018.75 1018.69 1018.58 1018.81 1018.85 1018.80 1019.04 1019.11 1018.90 1018.84 1018.91 1019.28 1019.00 1018.61 1018.49 1018.62 1018.42 1018.40 1018.52 1018.58 1018.53 1018.56 1018.80 1018.92 1018.92
1014.54 1014.78 1015.35 1015.83 1016.20 1016.57 1017.00 1017.19 1017.50 1017.51 1017.59 1017.63 1017.62 1017.62 1017.67 1017.89 1018.30 1018.59 1018.66 1018.81 1018.58 1018.52 1018.83 1018.95 1019.11 1019.14 1019.10 1018.81 1018.92 1019.18 1019.37 1019.39 1019.26 1018.65 1018.51 1018.55 1018.61 1018.62 1018.51 1018.55 1018.77 1018.87 1018.77
1013.76 1014.23 1014.59 1015.15 1015.68 1016.19 1016.75 1017.04 1017.19 1017.28 1017.60 1017.54 1017.36 1017.47 1017.59 1017.56 1017.87 1018.18 1018.45 1018.68 1018.69 1018.51 1018.69 1018.87 1018.96 1019.04 1019.16 1019.01 1019.10 1019.11 1019.18 1019.37 1019.50 1019.39 1018.85 1018.55 1018.61 1018.56 1018.55 1018.47 1018.61 1018.66 1018.64
1013.46 1013.69 1014.13 1014.67 1015.14 1015.60 1016.30 1016.66 1016.92 1017.15 1017.30 1017.29 1017.38 1017.35 1017.45 1017.45 1017.57 1017.87 1018.13 1018.37 1018.55 1018.62 1018.63 1018.67 1018.80 1018.92 1018.98 1018.95 1018.93 1018.91 1019.05 1019.47 1019.49 1019.52 1019.08 1018.74 1018.50 1018.58 1018.52 1018.50 1018.74 1018.69 1018.72
1012.97 1013.35 1013.72 1014.25 1014.64 1015.10 1015.64 1016.17 1016.57 1016.86 1017.22 1017.24 1017.27 1017.42 1017.49 1017.46 1017.46 1017.60 1017.89 1017.99 1018.26 1018.37 1018.44 1018.49 1018.54 1018.51 1018.77 1018.91 1018.96 1018.89 1019.09 1019.24 1019.23 1019.23 1019.21 1019.10 1018.98 1018.70 1018.64 1018.64 1018.69 1018.55 1018.66
Thickness
5761 5765 5765 5764 5765 5767 5768 5768 5767 5767 5766 5765 5764 5762 5761 5760 5757 5754 5754 5754 5754 5754 5752 5752 5752 5750 5748 5747 5745 5743 5742 5741 5739 5737 5734 5733 5736 5735 5731 5731 5729 5730 5728
5764 5763 5763 5764 5764 5765 5766 5766 5765 5765 5765 5763 5764 5762 5761 5758 5756 5753 5752 5752 5752 5751 5751 5750 5749 5748 5746 5744 5744 5742 5741 5738 5737 5736 5732 5731 5733 5733 5730 5729 5727 5726 5724
5761 5762 5761 5762 5763 5763 5762 5763 5763 5763 5763 5762 5761 5761 5760 5756 5754 5754 5752 5751 5750 5750 5749 5748 5746 5746 5746 5745 5744 5743 5741 5740 5734 5735 5731 5732 5732 5730 5727 5726 5724 5723 5721
5759 5759 5759 5759 5760 5761 5761 5761 5760 5761 5761 5760 5760 5759 5757 5754 5753 5753 5751 5751 5748 5747 5747 5745 5744 5745 5745 5745 5745 5745 5743 5744 5735 5731 5732 5733 5732 5729 5728 5726 5724 5721 5719
5755 5756 5755 5755 5756 5758 5759 5758 5758 5760 5760 5758 5758 5758 5755 5753 5753 5753 5750 5745 5746 5744 5745 5744 5744 5745 5746 5745 5744 5744 5742 5744 5739 5731 5731 5731 5729 5729 5726 5724 5722 5720 5716
5752 5751 5750 5751 5753 5755 5754 5755 5756 5757 5757 5758 5757 5756 5754 5754 5753 5752 5751 5743 5741 5741 5744 5743 5743 5743 5744 5744 5742 5743 5740 5743 5742 5736 5731 5731 5730 5728 5725 5719 5718 5715 5714
5749 5747 5746 5746 5749 5750 5750 5752 5754 5754 5755 5754 5755 5752 5752 5752 5750 5749 5746 5742 5741 5740 5742 5744 5744 5745 5744 5744 5743 5742 5743 5744 5741 5738 5732 5732 5730 5726 5722 5719 5715 5711 5712
5745 5745 5742 5739 5738 5745 5748 5750 5751 5751 5750 5750 5749 5749 5749 5747 5747 5745 5742 5740 5738 5741 5742 5744 5746 5747 5745 5745 5742 5740 5740 5741 5740 5740 5735 5734 5731 5725 5723 5715 5714 5712 5709
5743 5739 5737 5734 5733 5741 5745 5747 5747 5747 5746 5746 5746 5745 5744 5744 5743 5739 5739 5740 5742 5742 5744 5747 5748 5749 5748 5747 5745 5742 5739 5740 5739 5740 5735 5732 5730 5728 5725 5722 5712 5711 5711
5740 5737 5733 5731 5731 5732 5739 5742 5742 5742 5743 5743 5744 5742 5742 5740 5740 5739 5741 5742 5744 5744 5747 5749 5749 5750 5750 5748 5744 5741 5741 5743 5742 5742 5739 5733 5727 5728 5732 5725 5718 5713 5713
5736 5735 5731 5731 5732 5732 5736 5738 5739 5737 5737 5741 5740 5738 5736 5737 5739 5739 5740 5743 5744 5745 5749 5750 5750 5754 5752 5749 5748 5745 5746 5745 5744 5743 5741 5736 5735 5734 5730 5726 5722 5717 5712
5732 5732 5731 5730 5732 5734 5735 5737 5738 5738 5737 5737 5737 5735 5735 5737 5740 5739 5741 5744 5744 5748 5753 5753 5755 5756 5754 5754 5751 5750 5749 5750 5748 5744 5743 5739 5738 5737 5733 5730 5724 5718 5715
5731 5731 5731 5731 5730 5733 5734 5736 5736 5735 5737 5737 5736 5734 5735 5738 5740 5742 5744 5746 5747 5750 5754 5756 5758 5756 5755 5756 5755 5755 5753 5752 5748 5747 5747 5744 5743 5741 5736 5733 5727 5721 5718
5729 5730 5729 5730 5730 5731 5733 5735 5733 5735 5735 5736 5736 5734 5735 5738 5740 5743 5743 5747 5751 5752 5756 5757 5755 5754 5756 5758 5760 5759 5758 5755 5752 5753 5752 5749 5747 5747 5743 5740 5734 5727 5722
5729 5728 5727 5727 5727 5728 5732 5732 5732 5732 5734 5736 5735 5736 5737 5738 5740 5743 5744 5749 5752 5754 5756 5757 5756 5756 5756 5757 5760 5757 5758 5755 5757 5756 5756 5753 5751 5750 5748 5746 5741 5735 5729
5729 5728 5728 5728 5727 5728 5730 5731 5733 5733 5734 5734 5735 5738 5739 5740 5742 5744 5747 5750 5753 5754 5756 5755 5755 5755 5753 5754 5756 5756 5759 5760 5760 5758 5758 5756 5755 5755 5753 5751 5747 5742 5734
5731 5729 5728 5727 5730 5730 5732 5732 5733 5735 5735 5735 5737 5740 5741 5743 5744 5746 5748 5752 5754 5754 5757 5758 5758 5755 5754 5753 5755 5758 5760 5761 5761 5762 5760 5758 5759 5761 5760 5757 5753 5749 5742
5736 5733 5731 5730 5728 5731 5735 5732 5732 5733 5733 5735 5739 5741 5742 5746 5747 5747 5750 5753 5754 5756 5760 5758 5759 5753 5755 5752 5755 5759 5763 5762 5762 5763 5762 5761 5761 5764 5763 5760 5757 5753 5748
5737 5737 5733 5732 5731 5731 5731 5730 5731 5733 5735 5738 5740 5742 5745 5747 5750 5749 5752 5753 5755 5759 5762 5762 5761 5758 5757 5758 5760 5761 5763 5764 5764 5765 5765 5764 5764 5766 5766 5763 5761 5758 5753
5737 5736 5735 5735 5732 5730 5730 5729 5730 5732 5737 5740 5742 5744 5747 5749 5749 5749 5754 5754 5756 5760 5762 5761 5763 5764 5762 5763 5763 5764 5765 5766 5767 5767 5765 5767 5767 5768 5768 5764 5763 5761 5757
5740 5735 5736 5734 5735 5733 5730 5729 5731 5734 5738 5743 5745 5747 5749 5749 5748 5748 5752 5756 5757 5760 5763 5762 5762 5761 5763 5764 5763 5764 5767 5767 5768 5766 5767 5768 5769 5767 5767 5768 5765 5763 5760
5745 5742 5738 5738 5737 5737 5737 5736 5739 5741 5744 5748 5748 5749 5750 5750 5749 5748 5752 5756 5758 5758 5761 5763 5760 5760 5761 5764 5758 5755 5752 5761 5766 5765 5768 5771 5770 5768 5768 5769 5766 5765 5764
5746 5746 5744 5742 5742 5741 5742 5741 5739 5744 5745 5746 5749 5749 5751 5751 5750 5750 5752 5754 5757 5760 5760 5761 5761 5761 5757 5763 5762 5756 5750 5748 5753 5764 5768 5770 5769 5769 5769 5769 5767 5766 5766
5751 5750 5749 5747 5746 5745 5743 5742 5743 5742 5741 5747 5751 5753 5754 5755 5753 5752 5753 5752 5755 5760 5762 5761 5763 5762 5759 5759 5762 5761 5761 5758 5752 5750 5764 5768 5770 5770 5770 5771 5769 5768 5768
5755 5753 5752 5750 5749 5749 5745 5745 5745 5744 5746 5750 5752 5753 5755 5757 5756 5753 5754 5755 5755 5758 5762 5762 5763 5763 5762 5761 5763 5762 5761 5758 5758 5754 5756 5764 5769 5769 5771 5772 5768 5770 5770
5759 5755 5755 5752 5752 5751 5748 5747 5747 5747 5746 5747 5749 5751 5754 5757 5757 5756 5755 5756 5756 5758 5761 5763 5764 5765 5763 5763 5763 5764 5761 5758 5758 5757 5757 5760 5761 5767 5770 5770 5769 5771 5771